Theta_e
316 316 318 319 321 323 326 327 327 329 325 325 328 326 321 321 320 318 324 322 318 319 317 316 314 314 318 319 320 320 322 326 328 324 327 332 321 321 324 321 323 325 330 333 334 337 336 338 339 340 340 339 340 340 339 339 339 339 336 334 334 335 337 338 337 338 339 339 339 338 339 338 337 337 336 336 334 332 332 331 330 330 330 331 333 335 334 334 334 332 330 327 326 325 324 323 322
317 320 322 322 323 320 326 329 329 330 328 325 325 326 322 319 320 322 327 325 322 316 314 318 316 316 320 320 318 318 320 322 323 324 325 323 322 325 322 322 322 325 331 332 334 336 337 338 339 340 340 339 340 339 340 339 339 339 336 335 336 337 337 338 338 338 339 339 339 339 338 337 336 335 334 334 332 332 332 332 331 329 329 328 329 330 329 329 328 327 326 324 322 320 318 317 316
319 324 325 323 323 323 331 329 326 329 324 321 322 325 320 319 323 325 326 322 320 313 314 318 316 319 321 319 318 318 321 323 322 325 325 319 326 327 321 323 321 326 331 331 334 336 337 337 338 340 339 340 340 339 339 339 339 338 337 336 336 337 337 338 338 338 338 339 339 338 337 336 335 334 333 332 331 332 332 332 331 329 329 328 327 326 325 325 324 323 321 318 315 313 311 310 310
322 326 324 324 324 330 342 334 331 329 320 321 321 322 324 324 325 325 324 320 316 313 316 317 317 318 317 319 319 318 321 324 320 323 328 320 326 327 321 323 321 327 331 331 335 336 337 336 338 339 339 339 339 340 339 339 338 338 337 336 337 337 337 337 338 338 337 338 337 337 337 336 334 333 332 331 331 330 330 331 330 328 328 327 326 324 322 320 319 317 314 311 308 307 306 305 305
324 325 322 325 327 330 336 329 330 327 318 324 321 321 330 328 325 325 323 321 318 317 318 317 319 317 314 319 320 321 323 323 317 316 322 319 324 326 322 324 322 327 330 332 334 336 336 336 338 338 339 339 339 339 338 338 338 338 336 336 337 337 337 337 337 338 337 337 337 336 336 335 334 332 331 330 330 329 330 330 328 327 326 325 323 322 319 315 312 309 307 305 303 303 302 302 302
325 323 321 321 321 322 327 323 326 326 321 323 321 323 326 325 325 323 321 321 319 318 317 317 319 316 316 319 317 321 322 320 319 316 317 318 323 324 324 324 323 328 330 332 335 336 336 337 338 338 339 339 339 338 337 337 337 337 336 336 337 337 337 337 337 337 337 337 336 335 334 334 333 331 330 328 328 327 328 328 326 324 323 321 320 318 314 310 306 304 302 301 300 300 300 300 300
323 323 325 323 320 322 329 328 328 330 324 319 321 323 320 321 322 321 321 319 319 317 314 316 316 315 319 317 314 316 316 317 318 318 318 317 323 325 326 324 324 328 330 333 335 336 336 337 337 338 338 338 338 337 336 336 336 337 337 336 336 337 336 336 336 336 336 335 334 334 333 332 332 330 328 326 325 326 325 323 321 320 319 317 315 313 310 307 303 301 300 299 299 299 299 299 299
322 325 327 330 329 326 330 331 329 329 324 318 319 323 321 321 320 319 321 318 318 318 314 316 315 316 318 313 316 317 312 316 317 317 318 317 321 325 326 325 325 328 330 332 335 336 336 336 337 338 337 337 337 336 336 336 337 336 336 336 336 336 336 336 336 335 334 333 332 331 331 331 330 328 326 324 324 323 319 315 314 314 313 312 310 308 306 304 301 300 299 299 298 298 298 298 299
318 321 324 329 328 325 330 329 324 323 323 322 321 323 323 320 320 319 321 320 318 319 316 317 316 317 317 313 319 317 312 315 316 317 317 316 320 325 327 326 325 327 331 332 334 336 336 337 336 337 337 336 336 336 336 337 337 336 336 335 335 335 334 335 334 334 333 332 331 329 329 329 328 326 324 324 323 319 311 308 307 307 306 306 305 304 303 302 300 299 299 298 298 298 298 298 298
318 319 322 327 326 323 325 323 322 322 323 323 320 319 318 316 319 319 320 319 317 319 316 314 313 315 316 316 318 316 314 314 314 317 317 316 319 325 327 326 326 327 330 332 334 336 335 337 336 337 336 336 336 336 336 336 336 335 335 334 334 334 333 333 332 332 331 330 328 327 327 326 326 324 323 323 319 312 305 304 303 303 303 302 302 301 301 300 299 299 298 298 298 298 298 298 298
324 325 327 328 326 321 320 322 323 323 320 318 320 319 315 313 314 318 319 318 317 318 315 313 314 317 316 317 321 316 313 314 314 316 316 316 318 324 327 327 327 328 331 332 333 335 335 336 336 336 336 336 335 335 336 335 335 335 334 333 333 332 331 330 329 329 328 327 326 326 326 325 324 323 323 320 312 305 303 302 302 302 301 300 300 300 300 299 299 299 298 298 298 298 298 298 298
324 329 336 334 327 324 322 325 324 323 322 320 326 322 314 314 316 319 321 319 318 318 316 315 316 318 317 322 324 314 310 313 314 315 316 316 317 324 327 328 329 329 332 333 334 334 334 335 335 336 335 335 334 334 334 334 334 333 333 332 331 330 329 328 328 327 326 326 325 325 324 323 323 322 321 316 307 302 302 301 301 301 300 300 300 299 299 299 299 298 298 298 298 298 298 298 297
331 330 335 327 323 326 323 326 327 326 327 327 327 318 311 317 321 322 323 321 318 319 318 314 315 315 318 323 321 316 313 312 313 315 316 315 317 323 327 328 329 330 332 333 334 334 334 335 335 335 335 334 334 333 333 332 332 332 331 331 329 328 327 327 326 326 325 325 324 324 323 322 322 321 318 310 304 301 301 301 300 300 299 299 299 299 299 298 298 298 298 298 298 297 297 297 297
333 332 330 321 319 327 324 325 329 326 326 329 326 315 312 319 323 322 320 322 321 320 316 310 312 316 318 319 322 326 317 310 313 315 315 315 317 322 326 327 328 329 331 332 333 333 334 334 334 334 334 334 333 332 332 331 330 330 329 328 327 327 326 326 325 325 324 324 324 323 322 322 321 319 312 305 302 301 301 300 300 299 299 299 298 298 298 298 298 297 297 297 297 297 297 297 297
325 331 332 327 323 325 325 323 325 324 322 325 321 314 315 317 319 320 317 319 321 315 310 309 310 316 319 317 323 326 312 309 313 314 315 315 318 322 325 326 327 327 328 330 331 332 333 334 334 333 333 333 332 332 331 330 329 328 327 327 326 326 325 325 325 324 324 323 323 322 322 320 318 314 308 304 301 300 301 299 299 299 299 299 298 298 298 297 297 297 297 297 297 297 297 297 297
320 332 331 327 327 323 324 323 320 321 323 325 318 311 318 317 313 317 315 315 317 312 310 313 312 313 319 318 318 315 308 310 313 313 315 316 319 322 324 324 326 326 326 327 328 330 331 332 333 333 333 332 331 331 330 329 328 327 326 326 325 325 325 325 324 324 323 322 322 321 320 317 313 309 305 303 301 300 300 299 299 299 298 298 298 298 297 297 297 297 297 297 297 297 297 297 297
318 331 330 325 327 323 324 324 319 321 326 328 318 312 317 316 312 312 309 310 315 315 315 316 312 311 316 317 312 308 308 311 312 314 315 316 319 320 322 324 324 325 325 325 326 326 327 328 329 330 330 329 330 329 328 327 325 326 325 325 325 325 325 324 324 323 322 322 321 320 317 313 308 305 303 302 300 299 299 299 299 298 298 298 297 297 297 297 297 297 297 297 297 297 297 297 297
320 328 325 322 326 324 326 325 321 319 321 323 319 314 315 316 315 311 310 312 314 315 315 314 312 311 312 311 309 308 309 311 312 314 314 316 317 318 319 321 323 324 324 324 325 325 324 325 324 325 325 326 327 327 326 325 324 325 325 325 324 324 324 324 323 323 322 321 320 317 312 307 304 302 301 300 299 298 298 298 298 298 297 297 297 297 297 297 297 297 297 297 297 297 297 297 297
326 327 320 324 329 324 322 323 321 317 317 321 320 315 313 315 314 311 313 317 317 315 315 315 314 314 311 308 307 308 309 310 312 313 314 314 315 317 318 319 321 322 323 324 324 324 324 324 323 323 323 323 324 325 324 324 324 323 324 324 324 323 323 323 323 322 321 319 317 312 307 303 301 299 299 299 298 298 298 298 298 297 297 297 297 297 297 297 297 297 297 297 297 297 297 296 296
326 323 321 328 327 321 319 320 319 317 316 318 319 315 313 314 312 311 313 316 317 315 315 315 316 316 314 312 308 306 308 309 311 312 312 313 314 316 317 318 319 320 323 324 324 324 323 323 323 323 322 322 322 323 323 323 323 322 322 323 323 323 323 323 322 321 320 316 312 308 304 301 299 298 298 298 298 297 297 297 297 297 297 297 297 297 297 297 297 297 297 297 296 296 296 296 296
321 319 324 329 321 318 321 321 319 316 313 313 317 316 314 313 310 312 314 314 316 315 315 315 315 315 316 316 310 304 305 307 307 310 311 311 313 314 316 318 319 320 321 321 322 322 323 323 323 322 322 322 322 322 321 322 322 320 320 322 322 322 322 322 320 319 317 313 308 305 301 299 298 298 297 297 297 297 297 297 297 297 297 297 297 297 297 297 297 297 297 296 296 296 296 296 296
319 318 323 326 318 316 320 322 319 316 313 314 316 316 315 312 310 313 313 314 316 316 316 315 314 315 314 313 311 305 305 306 306 307 309 310 311 312 314 316 317 318 318 319 320 321 322 322 323 323 322 321 321 320 320 321 321 320 319 320 322 322 322 321 318 316 314 310 306 303 300 299 298 297 297 296 296 296 297 297 297 297 297 297 297 297 297 297 297 297 296 296 296 296 295 295 295
318 321 321 322 319 317 320 321 320 317 315 316 317 315 313 312 313 314 313 314 315 315 316 315 314 312 309 309 312 315 315 312 308 306 308 310 310 312 313 314 315 316 317 318 319 320 321 322 322 322 322 321 320 320 320 321 321 319 317 318 320 321 320 319 316 312 310 307 303 301 299 298 297 297 296 296 296 296 296 297 297 297 297 297 297 297 297 297 296 296 296 296 295 295 295 295 295
317 321 321 321 318 317 318 317 319 319 317 317 315 314 314 314 314 313 311 313 313 313 313 313 311 306 306 309 313 318 317 312 307 306 308 309 310 312 313 313 314 314 315 316 317 318 319 321 322 322 322 321 321 320 320 320 320 319 316 317 319 319 319 317 313 310 307 304 301 299 298 297 297 296 296 296 296 296 296 296 296 296 296 296 297 297 297 297 296 296 296 295 295 295 295 294 294
318 319 321 321 318 320 319 316 317 318 316 313 312 315 315 314 313 312 311 312 312 313 312 311 310 308 308 310 311 311 312 310 306 305 306 308 309 310 311 312 312 312 313 314 315 317 318 319 320 321 322 321 321 320 320 320 320 319 317 317 319 319 318 315 311 308 305 302 300 298 297 297 296 296 296 296 296 296 296 296 296 296 296 296 296 297 296 296 296 296 295 295 295 295 294 294 294
319 319 320 321 318 319 317 315 316 317 316 312 311 315 314 312 312 312 312 312 311 311 311 310 310 311 310 309 308 307 309 309 306 305 305 306 307 307 309 310 310 311 312 313 314 315 316 317 318 320 320 321 320 320 319 319 319 319 317 316 318 319 317 314 311 308 304 302 299 298 297 297 296 296 296 296 296 296 296 296 296 296 296 296 296 297 296 296 296 295 295 294 294 294 294 294 293
318 318 319 319 316 314 314 315 315 313 314 312 312 314 313 311 311 312 314 315 313 311 313 312 311 312 311 309 308 306 306 307 306 305 305 305 305 305 307 308 309 311 311 311 312 313 314 315 316 318 319 320 319 319 319 318 318 318 317 316 317 317 316 313 311 307 304 301 299 297 296 296 296 296 296 296 296 296 296 296 295 296 296 296 296 296 296 295 295 295 294 294 294 294 293 293 293
314 314 315 316 313 312 312 313 312 310 311 311 311 311 312 311 311 312 312 315 314 313 314 314 314 313 311 309 308 306 305 305 303 304 306 305 305 306 306 307 309 310 310 311 311 312 312 313 314 315 317 318 318 319 318 318 318 317 316 316 316 315 314 312 310 306 303 300 298 297 296 296 296 296 296 296 296 296 296 295 295 295 296 296 296 295 295 295 294 294 294 293 293 293 293 293 293
311 312 312 314 313 312 311 312 312 310 310 312 310 310 313 313 313 314 310 312 313 313 314 313 313 311 310 309 308 307 305 303 302 303 305 306 307 307 307 308 309 309 310 311 310 309 311 312 313 314 315 316 317 318 318 317 317 316 315 314 314 314 313 312 309 306 303 300 298 297 296 296 296 296 296 296 296 296 295 295 295 295 295 296 296 295 295 294 294 293 293 293 293 293 293 293 293
311 311 312 312 312 313 312 312 312 309 311 313 311 311 317 317 316 315 310 311 312 313 314 313 311 310 309 310 309 308 306 304 303 303 304 306 307 307 307 309 308 309 309 309 308 309 310 310 311 312 312 314 316 316 317 317 316 316 314 313 313 313 312 311 308 305 302 300 298 297 296 296 296 296 296 295 295 295 295 295 295 295 295 295 295 295 295 294 294 293 293 293 293 293 292 293 293
313 310 312 313 312 316 316 312 310 309 311 312 310 311 315 314 315 313 311 311 312 312 313 311 310 309 309 309 309 309 308 305 303 304 305 305 306 306 307 308 308 308 308 308 309 309 309 308 309 310 311 312 313 315 316 316 316 315 315 314 313 312 312 311 308 305 303 300 298 296 296 296 296 296 296 295 295 295 295 295 295 295 295 295 295 295 295 294 294 293 293 293 293 292 292 292 292
320 311 315 317 313 317 317 312 311 310 310 308 309 314 313 310 313 312 311 310 310 310 311 311 311 309 309 309 309 309 309 306 304 304 305 305 306 306 306 307 307 307 307 308 308 308 308 307 308 308 309 310 311 313 314 315 315 314 314 314 313 313 312 311 309 306 303 300 298 296 296 296 295 295 295 295 295 295 295 295 295 295 295 295 295 295 295 294 294 293 293 293 293 293 292 292 292
323 312 314 318 314 314 313 314 314 311 311 309 309 313 313 312 314 313 312 310 309 309 310 309 309 309 308 308 308 309 309 308 307 306 306 306 306 306 306 306 306 307 307 308 308 307 307 307 307 307 307 308 309 311 312 313 313 313 313 312 312 312 311 311 310 307 304 301 299 297 296 295 295 295 295 295 295 295 295 295 295 295 295 295 295 295 294 294 293 293 292 292 292 293 293 292 292
318 313 314 317 315 313 312 314 315 310 311 312 310 310 310 311 312 312 311 311 310 309 309 308 308 308 308 308 308 308 308 308 309 308 308 307 307 307 307 307 307 307 307 307 307 307 307 307 306 306 306 306 307 308 309 311 311 311 311 311 310 310 310 310 309 308 305 302 299 297 296 296 295 295 295 295 294 295 295 295 295 295 295 295 294 294 294 293 293 292 292 292 292 292 292 292 291
315 316 315 315 314 312 312 313 313 311 310 310 311 310 309 309 309 309 308 309 309 308 309 308 308 308 308 308 308 308 308 308 309 309 308 308 308 308 307 308 308 307 307 307 306 306 306 306 306 305 305 305 305 306 307 308 309 309 308 308 308 308 308 308 308 307 305 303 300 298 296 296 295 295 295 295 294 294 294 294 294 294 294 294 294 293 293 293 292 292 291 291 291 291 291 291 291
314 314 314 314 312 312 311 310 310 311 309 309 310 309 308 309 308 308 308 308 308 308 308 308 308 308 308 308 308 308 308 308 308 308 308 308 308 308 308 308 308 308 307 306 306 306 305 305 305 305 304 304 304 303 304 305 306 306 306 305 305 306 306 306 306 306 305 303 301 298 297 296 295 295 295 295 294 294 294 294 294 294 294 294 294 293 293 293 292 292 291 291 291 291 291 290 291
311 312 313 313 312 311 310 309 309 309 308 309 310 309 309 309 309 309 308 308 308 308 308 309 309 309 309 309 309 309 309 309 309 308 308 308 308 308 309 309 308 307 307 305 305 305 305 305 304 304 304 303 303 302 302 303 304 304 304 304 305 305 305 305 304 305 304 303 302 299 297 296 296 295 295 295 294 294 294 294 294 294 294 294 294 294 294 293 292 292 291 290 290 291 290 290 290
312 313 312 312 311 310 310 310 309 308 308 310 311 310 309 309 309 309 309 309 309 309 309 309 309 309 310 310 310 310 309 310 311 309 308 307 308 308 308 308 308 307 307 306 305 305 305 304 304 304 303 302 302 302 302 302 303 304 304 304 305 304 303 303 303 304 303 302 301 299 297 296 296 295 295 295 295 294 294 294 293 294 294 293 293 293 293 292 292 291 291 290 290 290 291 291 290
312 312 311 311 311 310 310 310 310 309 309 312 312 310 308 309 309 309 309 309 309 310 310 310 310 310 310 310 310 310 311 312 312 310 309 307 307 307 307 308 308 308 308 307 306 305 304 304 304 304 303 302 302 302 302 302 302 303 303 303 302 301 301 301 301 301 300 300 299 297 296 296 295 295 295 295 295 295 294 294 294 294 294 294 293 292 292 291 291 291 290 290 290 289 290 290 290
312 312 311 312 311 311 312 313 315 312 309 311 311 309 309 310 309 309 309 309 309 310 309 309 310 310 310 310 310 310 311 312 311 310 310 307 306 306 307 307 307 307 307 306 306 305 304 304 304 304 303 303 302 302 302 302 301 301 301 301 301 300 300 299 298 298 298 297 297 296 296 295 295 295 295 295 295 295 295 294 294 294 294 294 293 293 292 291 291 291 291 290 290 289 289 289 290
312 312 311 312 312 312 311 313 314 312 312 314 311 312 314 313 311 312 313 312 310 309 310 312 311 309 309 310 310 309 310 312 312 312 310 309 306 305 307 308 307 306 307 307 307 306 305 305 304 304 303 303 302 302 301 301 300 300 300 299 299 299 298 297 297 297 296 296 296 296 295 295 295 295 295 295 295 295 295 295 294 294 294 293 293 293 293 292 292 291 291 290 290 290 290 290 290
312 314 313 312 312 312 312 313 312 312 317 316 312 314 317 316 315 317 320 319 317 315 317 317 314 310 311 312 312 311 312 313 313 311 309 308 306 305 306 307 307 307 307 308 307 306 306 305 304 303 303 303 302 302 301 300 300 300 299 299 298 297 297 296 296 296 296 295 295 295 295 295 294 294 294 294 295 295 295 295 294 294 294 293 293 293 292 292 292 291 291 291 290 291 291 290 290
313 317 317 314 312 313 313 312 312 315 318 314 313 317 317 316 317 320 322 322 320 319 318 315 312 312 313 313 312 312 313 313 313 311 309 310 310 307 307 306 306 307 307 308 307 306 305 304 304 303 303 302 302 301 300 300 300 299 299 299 298 298 297 297 297 297 296 295 295 295 295 295 294 294 294 294 295 294 294 294 294 294 294 293 293 292 292 292 292 292 291 291 291 290 290 291 291
315 316 318 318 315 314 313 312 312 316 316 312 314 316 315 316 315 317 318 317 318 317 315 312 311 312 314 314 311 312 313 313 313 310 308 312 312 307 307 306 306 307 306 307 306 305 305 304 303 303 302 302 301 301 300 300 300 299 299 299 299 298 298 298 298 297 296 296 295 295 294 294 294 294 294 294 294 294 294 294 294 294 294 294 293 292 292 292 292 291 291 290 290 290 290 291 292
316 313 314 316 315 315 314 313 315 315 314 315 314 313 316 318 315 315 315 315 320 318 315 314 314 314 315 317 316 314 313 311 311 310 309 312 308 304 305 306 307 307 306 306 306 305 304 303 303 302 302 302 301 301 300 300 300 299 299 298 298 299 298 298 298 297 296 296 295 294 294 294 293 293 293 294 294 294 294 294 294 294 294 294 293 293 292 292 291 291 291 290 290 290 290 290 291
314 311 314 316 316 316 314 315 318 318 318 317 315 314 317 319 317 317 315 316 322 322 319 318 317 316 316 320 320 318 316 312 310 312 311 309 305 303 305 305 306 306 305 306 305 304 303 302 302 302 302 302 301 301 300 300 299 299 299 298 298 298 298 298 297 297 296 295 295 294 294 293 293 293 293 293 293 293 294 294 294 294 294 294 293 293 292 291 291 291 291 291 291 291 290 290 291
312 313 318 319 318 317 317 317 317 319 319 317 317 317 316 318 319 319 318 319 322 322 320 318 317 318 321 322 319 317 316 312 309 310 309 307 303 303 305 304 305 307 306 306 305 303 303 302 302 302 301 301 300 300 300 299 299 299 299 298 298 298 298 297 297 296 296 295 295 294 294 293 293 293 292 292 292 293 293 293 293 293 293 293 293 293 293 292 292 291 291 291 290 290 290 290 290
314 317 319 318 318 319 320 319 317 318 320 318 317 315 314 318 317 317 320 320 318 317 315 315 315 317 320 320 315 312 312 310 309 311 312 311 309 307 305 303 304 306 307 306 304 303 302 301 301 301 301 301 300 300 299 299 299 298 298 298 298 298 298 297 296 296 296 295 295 294 293 293 293 293 292 292 292 292 292 292 292 292 293 293 293 293 293 293 292 291 291 290 290 290 290 290 290
313 317 316 314 318 318 318 320 318 318 320 316 314 313 314 316 314 315 318 316 314 313 313 315 314 315 320 319 314 312 310 308 311 315 316 316 316 311 304 301 302 304 304 304 303 303 301 300 300 300 301 300 299 299 299 299 298 298 298 298 297 297 297 297 297 296 296 295 295 294 294 293 293 292 292 292 292 292 292 292 292 292 292 292 292 293 293 292 292 291 290 290 290 290 290 290 290
310 313 315 316 318 319 319 321 318 317 318 314 310 314 316 316 317 317 315 313 313 314 316 317 314 315 318 315 312 312 309 309 314 316 317 317 315 308 301 300 301 301 302 302 302 302 301 300 300 299 300 300 299 299 298 298 298 298 298 297 297 297 297 297 297 296 296 295 295 294 294 293 293 293 293 293 293 292 292 292 292 292 292 292 292 292 292 292 291 290 290 290 289 289 289 289 289
310 313 316 316 319 322 321 322 321 320 318 311 308 315 319 319 319 317 315 315 316 316 316 314 312 313 313 313 313 312 310 312 314 313 313 313 308 301 299 299 300 300 301 301 301 301 300 300 299 298 299 299 298 298 298 298 298 298 297 297 297 297 297 297 296 296 296 295 295 294 294 294 293 293 293 293 292 292 292 292 292 292 291 291 291 291 291 291 290 290 289 289 289 289 289 289 289
312 314 315 316 319 320 318 321 322 318 316 313 312 316 318 317 315 312 314 315 312 313 313 312 314 314 314 317 315 311 312 314 311 308 307 305 301 298 298 299 299 299 299 299 298 298 298 298 298 298 298 298 298 297 297 297 297 297 297 297 297 297 296 296 296 296 296 296 295 295 294 294 294 293 293 292 292 292 292 292 291 291 291 291 290 290 290 290 290 289 289 288 288 289 289 289 289
314 312 316 318 317 315 315 319 319 315 315 317 318 318 316 316 317 317 319 316 311 313 314 314 315 314 315 317 314 312 313 310 305 304 302 299 298 297 297 297 297 297 297 297 297 297 297 297 297 297 297 297 297 297 297 297 296 296 296 296 296 296 296 296 296 296 296 296 295 295 295 295 294 293 293 292 292 291 291 291 291 291 290 290 290 290 289 289 289 288 288 288 288 288 288 288 289
315 316 317 315 312 312 315 318 319 318 317 317 317 317 316 317 319 320 320 317 314 314 315 316 317 316 316 315 311 310 307 302 300 300 297 296 296 296 296 296 295 295 295 295 296 296 296 296 296 296 296 296 296 296 296 296 296 296 296 296 296 296 296 296 296 296 296 295 295 295 295 295 294 294 293 293 292 292 291 291 290 290 290 290 289 289 289 288 288 288 288 288 288 288 288 288 288
311 315 314 313 314 315 316 319 319 319 319 320 319 318 318 317 317 317 315 314 314 313 313 315 314 312 310 307 304 302 299 297 297 296 295 295 294 294 294 294 294 294 294 295 295 295 295 296 296 296 296 296 296 296 295 296 295 295 295 295 296 296 296 296 296 296 295 295 295 295 295 295 294 294 294 293 293 292 292 291 291 290 290 289 289 289 288 288 287 287 287 287 287 287 287 287 287
310 310 311 313 314 314 316 319 320 320 320 320 320 319 319 318 316 315 315 314 315 314 313 310 306 303 301 299 298 297 295 295 294 293 294 293 293 293 293 293 293 293 293 294 294 294 294 294 295 295 295 295 296 296 295 295 295 295 295 295 295 295 295 295 295 295 295 295 295 295 295 295 294 294 293 293 293 293 292 292 291 291 290 290 289 289 288 288 287 287 287 287 287 286 286 286 287
314 312 314 314 313 315 316 317 318 319 318 319 320 319 319 321 319 315 316 316 314 311 307 303 300 298 297 296 295 294 294 293 293 293 293 292 292 292 292 292 292 292 292 293 292 293 293 293 294 294 294 294 294 295 295 295 295 295 295 295 295 295 295 295 295 295 295 295 295 295 295 295 294 294 293 293 293 292 292 292 291 291 291 290 290 289 289 288 287 287 286 286 286 286 286 286 286
315 315 316 316 315 317 316 316 317 317 317 318 318 318 320 324 323 317 316 315 308 303 301 299 297 296 295 295 294 293 293 292 292 292 292 292 292 291 291 291 291 291 292 292 292 292 292 292 293 293 293 293 293 293 294 295 295 295 294 294 294 294 294 294 294 295 295 295 295 295 295 294 294 293 293 293 293 292 292 292 291 291 291 290 290 289 289 288 287 287 286 286 286 285 285 285 285
Wind_Speed
2 2 2 2 2 1 2 4 1 2 2 1 2 1 3 2 1 2 4 3 2 2 2 1 4 4 2 2 4 3 3 6 5 3 2 4 3 11 26 20 16 27 33 32 30 28 25 25 23 21 20 20 19 17 16 15 15 14 13 12 12 11 10 10 10 10 10 10 11 11 10 10 9 8 7 7 7 6 6 5 4 4 3 3 4 4 3 3 3 3 4 5 4 4 4 4 4
2 2 2 1 3 1 1 3 1 2 3 2 2 2 3 2 1 4 5 3 3 2 1 1 3 2 1 1 1 1 4 5 4 2 3 4 3 13 28 20 18 29 34 33 31 29 26 26 25 23 21 20 19 18 17 16 15 14 14 13 12 11 11 11 11 11 11 11 11 11 11 10 9 7 6 6 6 5 5 4 4 4 4 3 4 4 5 5 5 5 6 6 5 5 5 5 4
1 2 2 1 3 3 1 3 1 0 1 3 3 3 1 1 4 6 6 6 5 2 2 1 2 2 2 3 2 1 4 3 3 3 3 5 3 12 29 21 19 31 34 33 31 29 28 27 25 23 22 20 20 18 18 16 16 15 14 13 12 12 12 12 11 12 12 12 12 11 10 8 8 6 5 5 5 4 4 4 3 5 4 4 5 5 6 5 6 6 6 6 6 5 5 4 4
1 2 3 1 2 3 3 3 1 2 2 2 3 4 2 4 6 6 6 6 4 1 1 1 1 2 3 5 3 1 5 4 4 5 2 5 5 12 30 22 21 33 34 33 32 30 28 28 26 23 21 20 19 18 18 17 17 15 14 14 13 13 13 13 12 12 12 12 11 10 9 8 7 6 5 4 4 4 4 4 4 6 5 6 6 6 6 5 5 5 5 5 5 4 4 3 3
3 4 3 2 2 1 3 2 1 2 3 3 1 4 4 6 5 5 5 6 4 3 3 2 1 1 2 4 2 1 4 3 3 8 3 4 6 13 30 23 24 35 34 34 32 30 29 28 26 24 21 19 19 18 18 18 17 16 16 15 14 14 13 13 12 12 11 11 10 9 8 7 7 6 4 4 4 4 5 5 5 7 6 6 6 6 5 4 4 4 4 4 4 4 3 3 3
4 5 6 5 3 1 3 1 2 2 4 4 2 5 5 5 5 5 6 6 2 4 3 1 1 0 1 3 3 4 3 0 1 8 6 3 5 15 29 24 27 36 34 34 32 30 30 29 27 25 23 20 20 19 18 18 17 17 17 16 15 15 14 13 12 11 11 10 10 8 8 8 7 7 6 5 5 5 6 6 7 8 7 6 6 5 4 3 3 3 3 3 3 3 3 2 2
3 2 5 5 2 2 3 2 3 3 4 5 3 6 6 3 4 3 6 5 1 2 1 1 1 1 3 2 2 6 7 5 1 4 6 5 5 17 29 25 29 36 34 34 32 30 30 29 28 25 23 22 21 20 19 19 18 17 16 17 15 15 14 13 12 11 10 10 11 9 9 9 8 8 7 6 6 7 7 8 9 9 8 7 6 5 4 3 3 3 3 2 2 3 2 2 1
4 1 1 3 1 2 2 2 3 3 3 3 3 6 8 4 3 3 5 2 1 2 1 3 1 1 3 1 2 5 7 11 8 5 7 7 7 18 28 26 31 36 34 34 31 30 30 29 28 26 24 22 22 21 20 19 18 18 17 17 15 14 14 12 12 11 11 12 12 10 10 10 10 9 8 7 7 8 9 10 10 9 9 8 7 6 5 4 3 3 3 3 3 2 2 2 1
5 3 0 2 2 1 1 2 3 3 4 4 4 7 8 5 3 3 5 3 3 1 2 4 3 3 3 2 4 4 4 11 13 10 8 9 9 19 28 27 32 36 34 33 32 31 30 29 28 26 24 23 23 21 21 20 18 18 18 18 15 14 14 13 13 12 12 12 12 12 11 12 11 10 9 9 9 10 10 10 10 10 9 8 7 6 5 5 4 4 3 3 3 2 2 2 2
5 3 2 2 2 1 3 2 2 3 4 4 5 9 8 5 3 4 5 5 3 1 2 2 2 4 2 3 6 3 3 8 13 14 10 9 11 19 27 28 32 35 34 33 32 31 30 29 29 27 25 24 24 22 21 20 19 18 18 17 16 15 15 14 14 14 14 13 13 13 13 13 12 11 11 11 11 11 11 10 10 10 9 8 7 6 6 5 5 5 4 4 3 2 2 2 2
3 4 2 3 2 1 3 3 3 4 4 4 6 8 7 4 2 3 3 4 3 2 2 3 2 3 1 3 5 3 5 6 11 14 11 10 12 20 26 28 31 34 33 33 32 32 31 30 30 29 27 25 25 24 22 22 21 19 18 18 17 17 17 16 16 16 16 15 15 14 14 13 13 13 13 12 12 12 11 11 10 10 9 8 7 7 7 6 5 5 4 4 3 3 2 2 2
2 2 3 3 2 2 3 3 5 6 6 4 5 4 2 4 3 3 4 3 2 1 4 5 3 3 2 3 3 4 5 7 9 11 12 11 13 20 25 28 31 32 33 32 32 32 31 31 31 30 28 26 26 25 23 23 22 21 20 19 19 19 19 19 18 18 17 16 16 15 14 14 14 14 13 13 12 12 12 12 11 10 9 8 8 8 7 6 5 4 3 3 3 2 2 2 2
2 2 3 2 2 2 2 2 4 5 6 3 4 2 2 4 4 5 5 2 2 1 5 7 2 2 2 4 3 5 4 6 9 11 12 11 14 21 26 28 31 32 32 32 32 32 32 32 32 31 29 27 26 26 25 24 24 23 21 20 20 19 20 20 19 18 18 17 17 16 16 16 16 15 14 14 13 13 13 12 12 11 10 9 9 8 7 6 5 4 3 2 2 1 1 2 2
2 3 3 1 0 1 2 2 3 2 4 4 3 2 1 3 4 4 4 1 4 3 3 5 5 2 3 3 4 4 2 3 8 12 11 12 15 21 26 28 31 32 32 33 33 33 33 32 32 32 30 29 28 28 27 25 24 24 23 23 22 21 21 20 19 19 19 18 18 18 18 17 16 16 16 15 14 14 14 13 12 11 11 10 9 8 6 5 5 4 3 2 1 1 1 2 3
3 2 3 2 0 1 2 2 1 2 4 5 3 1 1 4 3 3 4 3 5 4 1 2 5 2 2 3 4 4 1 2 8 11 11 14 17 22 26 28 30 31 32 33 34 34 34 34 33 33 32 31 31 30 29 28 26 26 26 25 24 23 22 21 20 21 20 20 20 20 20 19 18 17 17 16 16 15 15 14 13 12 11 10 9 7 6 5 5 4 3 2 1 0 1 2 3
3 3 4 1 1 1 3 3 2 2 5 5 3 0 2 4 3 1 4 3 4 2 0 3 4 2 3 5 6 3 1 2 9 11 12 15 18 21 24 27 28 30 32 33 34 35 35 35 35 34 34 33 32 32 31 30 29 28 27 26 25 23 23 23 22 23 22 21 22 22 21 20 19 18 18 17 17 17 15 14 13 12 11 10 8 7 6 5 5 4 3 2 1 0 1 1 2
2 3 3 0 2 2 3 4 4 3 5 5 4 0 1 5 0 2 2 1 4 3 2 4 3 3 5 5 3 2 2 5 10 13 14 16 18 20 22 25 27 30 33 34 36 36 36 36 36 36 36 35 34 33 32 31 30 29 28 27 26 25 25 24 24 25 24 23 23 23 22 21 20 20 19 19 18 17 16 15 14 13 12 10 9 7 6 5 5 4 3 3 2 2 1 1 1
2 3 2 2 3 4 6 8 7 4 3 5 3 2 2 6 3 1 0 1 3 5 6 5 5 8 11 10 7 5 5 9 13 16 17 17 18 18 21 25 29 32 34 36 37 37 37 37 37 37 37 37 35 34 33 32 31 30 30 29 28 28 27 26 27 27 26 25 25 24 23 22 21 21 20 20 18 17 17 16 15 14 12 11 9 8 7 6 6 5 5 4 3 3 3 2 2
2 3 2 4 6 5 6 7 6 5 4 4 4 3 4 6 2 0 2 5 4 7 9 3 5 13 13 13 12 10 9 13 16 19 20 21 23 23 24 26 29 32 34 38 40 40 39 39 38 38 38 37 36 35 34 33 32 32 31 31 31 29 29 29 29 29 28 27 26 25 23 22 22 22 21 19 18 18 18 17 16 14 13 12 10 10 9 8 7 7 6 5 5 4 4 3 3
2 3 2 6 6 5 5 6 8 8 4 3 6 2 3 5 3 1 3 5 5 8 11 5 7 13 11 10 11 12 13 15 18 20 21 23 26 28 27 27 31 35 39 42 41 41 41 41 40 39 38 37 37 36 35 34 34 33 32 32 32 31 31 31 31 31 30 28 26 25 24 23 23 22 21 20 19 19 19 18 17 16 14 13 12 11 10 9 8 8 7 6 5 5 4 4 3
1 4 5 6 4 3 7 8 9 7 3 3 5 3 5 5 3 3 4 3 7 10 12 11 13 13 12 8 8 12 13 14 18 20 21 23 25 28 30 32 35 37 38 36 37 41 43 43 42 40 39 38 37 37 37 36 36 34 32 32 33 33 33 33 32 31 30 29 27 26 24 23 23 23 23 22 21 21 20 20 18 16 15 14 12 11 10 10 9 9 8 7 7 6 5 5 4
2 4 7 6 4 3 7 7 7 5 3 3 3 5 6 1 1 5 7 5 9 10 9 11 14 12 11 9 6 9 10 11 14 18 22 25 27 29 31 32 32 31 31 33 38 42 44 44 43 41 40 39 39 38 37 37 36 35 33 34 35 35 35 35 34 32 31 30 28 27 25 25 25 25 24 24 23 22 22 20 18 17 16 14 13 12 12 11 11 10 9 8 8 7 6 6 5
3 5 6 7 6 6 5 3 5 5 4 4 4 5 4 2 5 5 10 11 14 14 11 10 12 10 9 7 5 7 10 10 12 20 27 28 29 32 34 33 33 33 33 36 38 40 42 44 44 43 42 42 41 39 38 38 38 37 35 35 37 37 37 36 35 33 32 31 29 28 27 27 27 27 26 26 25 24 23 21 19 18 17 16 15 14 13 13 12 11 10 9 9 8 7 6 6
3 5 5 6 5 8 7 2 3 4 6 8 2 6 8 8 7 2 9 13 17 19 15 11 11 9 7 7 7 9 11 12 16 27 31 31 33 36 35 35 36 34 33 35 37 38 41 44 45 45 45 44 43 41 40 40 39 39 36 36 38 39 38 38 37 35 33 32 31 29 28 28 28 28 28 27 27 25 24 22 21 20 19 18 17 16 15 14 13 12 11 10 9 8 8 7 6
5 7 5 3 3 7 8 4 4 6 8 6 1 7 16 12 4 8 12 13 17 20 16 10 9 9 7 10 11 11 11 12 18 25 27 30 33 31 31 33 32 32 34 37 37 39 41 42 45 47 47 45 44 43 42 42 41 41 39 38 39 40 40 39 38 36 35 33 32 31 30 30 30 30 30 29 28 27 25 24 23 22 21 19 18 17 16 14 14 13 12 11 10 10 9 8 7
7 8 5 4 5 7 6 6 7 7 6 3 2 10 17 9 2 12 15 14 18 17 14 10 7 10 10 11 13 11 11 13 16 19 23 27 27 26 31 33 31 35 39 38 38 40 41 41 44 47 48 47 45 44 44 44 43 43 42 42 42 42 41 40 39 37 36 35 34 33 32 32 32 32 31 30 30 29 27 25 25 23 22 21 20 18 17 15 14 14 13 12 12 11 10 9 8
4 4 6 7 8 8 4 6 8 5 5 6 7 12 15 6 2 10 12 7 9 9 11 10 5 10 11 10 11 9 9 15 18 16 17 19 22 28 34 32 35 40 39 37 40 42 41 41 43 45 47 47 46 46 46 46 45 45 45 44 44 43 43 42 40 39 37 36 35 34 34 34 33 33 32 32 31 30 28 27 26 25 24 23 21 20 18 17 15 14 13 13 12 12 11 10 9
2 1 6 9 7 9 5 6 9 4 4 7 11 9 11 4 2 15 16 2 2 6 10 11 8 10 10 9 9 6 8 16 17 12 14 18 24 31 33 34 39 42 39 41 44 41 41 42 42 44 46 47 48 48 48 48 48 47 46 46 46 46 44 43 42 41 39 38 36 36 36 35 35 34 33 33 32 32 30 29 28 27 26 24 23 21 19 18 17 16 15 14 13 12 12 11 10
1 3 5 9 7 10 8 6 6 5 4 5 9 3 8 6 10 20 14 1 2 5 9 12 11 11 9 8 8 6 9 13 13 14 22 27 29 31 33 38 40 40 42 44 41 38 41 42 43 44 44 47 49 50 50 50 50 49 49 49 48 48 46 45 44 43 41 39 38 38 37 37 36 35 35 34 33 33 31 31 30 29 28 26 24 22 21 20 19 18 17 16 15 14 13 12 11
2 2 1 7 6 9 7 2 1 4 5 6 7 3 6 9 16 19 7 2 4 5 9 12 11 10 8 7 7 8 9 10 12 19 28 32 32 31 34 38 36 38 40 38 37 40 42 42 43 44 44 47 49 51 51 51 51 51 50 50 50 49 48 48 46 45 43 41 40 39 39 39 38 37 36 35 35 34 33 32 32 31 29 27 25 24 23 22 21 20 19 17 16 15 14 13 12
2 1 1 2 2 7 7 0 3 1 3 5 5 4 8 10 15 18 5 3 3 6 10 11 10 9 7 7 6 8 9 11 17 25 31 32 32 31 35 36 33 36 36 35 38 41 41 42 43 44 45 47 49 51 52 53 53 52 52 51 51 50 49 50 49 47 45 43 42 42 41 41 40 39 37 37 37 36 35 34 33 32 31 29 27 26 24 24 23 21 20 19 18 17 15 14 13
1 2 4 2 3 6 11 6 6 6 4 4 5 4 8 10 13 16 7 4 2 7 10 10 11 11 9 8 7 9 11 13 19 26 31 32 32 32 34 35 32 34 35 36 39 38 39 41 42 44 45 47 49 51 52 53 52 51 51 51 51 51 51 51 50 49 47 45 44 44 44 43 41 40 39 39 39 38 37 36 35 34 32 30 29 28 26 26 24 22 21 20 19 18 17 16 15
2 2 5 4 5 4 7 9 6 7 4 2 6 5 6 8 9 12 9 6 5 7 11 12 13 12 11 10 9 10 11 14 17 22 30 31 31 32 32 33 32 33 35 37 38 38 39 41 42 44 46 48 49 50 51 51 51 51 50 50 49 49 50 52 51 50 49 47 47 46 46 45 43 42 41 41 40 39 38 37 37 35 34 32 31 30 28 27 25 24 23 22 20 19 18 18 16
3 2 4 4 6 4 4 8 6 3 6 4 5 7 10 11 10 10 12 13 12 11 14 15 14 13 13 12 12 13 11 13 15 20 28 26 24 28 29 31 32 32 34 36 37 38 40 41 42 44 46 46 47 48 49 50 49 47 47 47 47 48 50 51 50 50 50 50 49 48 47 46 45 44 43 43 41 40 39 38 38 37 36 34 33 31 30 28 27 25 25 24 22 20 19 18 17
7 5 4 4 4 6 6 7 5 2 3 3 4 9 13 14 13 13 14 13 14 17 16 16 16 15 14 13 13 13 12 14 16 23 28 21 18 23 24 26 29 30 33 34 36 38 39 39 40 43 44 44 44 45 45 44 43 42 43 42 43 46 48 49 49 51 52 51 50 49 49 48 47 46 45 44 43 42 41 40 39 38 38 36 35 33 32 31 29 28 26 25 24 22 19 18 18
8 5 5 6 6 6 8 10 7 4 5 7 10 14 13 13 14 14 14 11 11 16 17 16 16 14 14 12 12 12 14 16 18 22 23 18 18 20 21 24 25 28 30 32 34 36 37 38 39 41 43 43 42 41 40 40 39 40 40 40 42 46 48 49 50 52 52 52 52 51 50 50 49 48 47 46 45 44 43 42 41 40 39 38 37 36 35 34 32 31 29 27 26 24 22 20 19
1 3 5 7 7 9 10 11 8 2 2 8 12 16 15 14 15 14 15 12 9 15 18 17 16 16 14 12 13 14 15 16 14 17 19 18 20 20 20 22 22 25 27 29 31 34 37 38 39 42 42 42 42 42 42 42 43 42 41 44 49 51 50 50 51 52 53 54 54 53 52 52 51 50 49 48 47 46 45 44 43 42 40 40 39 38 36 35 33 32 30 29 28 26 25 24 22
5 5 7 6 6 12 11 11 11 2 2 7 8 15 16 14 15 15 16 14 14 15 14 17 20 18 15 14 17 16 12 9 9 12 15 16 17 16 17 19 20 23 26 28 31 34 35 36 39 42 40 40 43 45 45 46 48 48 48 51 53 52 50 52 53 54 55 54 53 53 53 53 52 52 51 50 49 48 47 46 45 44 43 42 40 38 37 35 35 33 32 31 29 27 26 25 25
7 5 5 6 5 9 9 8 9 2 2 6 8 13 13 13 18 18 19 17 14 12 10 15 20 17 17 16 14 10 8 8 8 10 12 11 10 11 12 15 19 23 26 27 29 31 33 35 39 40 38 40 44 45 46 47 47 46 45 44 44 42 42 46 48 48 49 50 50 51 51 52 53 53 52 52 51 50 49 48 46 45 44 43 42 40 39 38 37 36 35 34 31 28 25 25 28
6 5 4 7 5 6 7 5 6 4 3 6 9 13 11 13 16 17 17 13 11 13 12 14 17 18 20 16 9 7 8 10 11 12 12 7 8 9 11 15 18 20 24 27 28 30 32 35 38 38 38 41 43 44 46 45 41 39 38 35 33 33 34 37 38 39 42 45 46 49 51 52 52 53 53 52 51 51 49 49 48 48 47 46 45 44 43 41 40 39 38 36 33 30 27 26 29
7 6 4 9 10 9 9 5 7 6 5 3 6 12 9 6 8 9 8 4 6 11 11 14 17 14 13 13 11 6 5 8 9 13 12 6 7 8 14 17 17 18 23 25 27 29 32 34 36 38 39 41 42 43 44 42 37 35 35 30 27 28 28 29 34 39 41 43 46 50 50 51 51 52 52 52 52 51 51 50 50 49 48 47 46 46 46 44 43 42 40 39 37 34 31 28 28
7 5 10 15 13 11 11 8 7 6 5 3 5 7 6 1 1 6 4 3 5 6 8 16 13 4 3 8 9 5 4 6 7 11 9 5 4 10 14 16 15 18 21 22 24 26 30 33 34 35 37 39 40 41 41 40 38 37 36 34 31 30 30 33 41 45 43 45 47 48 48 50 51 51 52 53 52 52 52 51 51 50 49 49 48 47 46 46 44 44 42 41 41 38 32 28 28
7 4 11 13 10 9 9 7 4 2 4 2 3 1 7 3 3 7 5 2 8 9 11 15 7 5 5 7 7 5 6 6 6 6 6 6 7 9 12 14 14 16 20 21 22 23 25 29 30 32 34 37 38 38 39 40 40 39 40 40 37 35 35 39 43 41 40 43 44 44 47 50 51 52 53 53 53 52 52 51 51 50 50 49 49 48 47 47 46 45 44 43 43 40 34 29 29
6 4 6 7 7 7 5 3 3 3 4 3 3 4 6 8 4 5 3 3 9 13 13 11 6 6 9 8 8 7 7 6 5 4 4 5 8 7 11 15 17 17 19 21 21 21 22 24 27 29 31 34 35 35 37 40 41 40 40 39 37 38 39 37 35 34 36 39 41 42 45 48 51 52 53 53 54 53 53 52 52 51 50 50 50 50 49 49 47 46 45 44 44 42 39 34 32
6 3 5 6 5 4 4 4 3 1 4 4 3 5 3 9 5 1 1 3 8 12 11 10 8 9 9 7 7 7 6 4 3 3 2 6 7 9 14 18 19 19 18 19 19 19 19 19 22 26 28 31 33 34 36 39 40 39 38 38 37 38 38 32 29 31 34 36 39 41 42 45 48 50 51 52 53 53 53 53 52 52 52 51 51 51 50 49 48 48 47 47 46 45 44 39 34
4 5 6 5 4 3 4 3 2 2 4 5 5 5 3 9 5 3 2 2 7 8 7 7 8 8 8 8 7 7 6 3 4 2 5 6 9 13 14 16 19 20 20 20 20 18 17 16 18 22 26 29 31 33 35 38 40 39 37 38 38 35 33 29 27 29 32 34 37 39 40 42 45 47 49 50 51 52 53 53 53 53 53 53 52 52 51 50 50 50 49 48 48 47 46 43 38
4 6 4 5 4 4 3 1 3 2 6 6 9 11 4 6 4 4 3 4 6 5 4 7 8 8 7 7 6 7 8 5 3 1 5 7 13 17 15 16 21 25 25 25 22 20 17 15 15 19 22 25 28 30 33 36 39 40 40 39 38 35 31 29 28 29 31 34 36 38 39 40 42 45 48 48 50 51 52 52 52 53 53 53 53 53 53 53 52 51 50 49 49 49 48 46 42
4 4 3 3 3 3 4 3 3 2 8 6 8 11 7 6 6 1 4 6 5 3 3 7 9 9 9 7 6 7 6 5 4 4 6 7 12 17 19 20 25 27 29 30 27 23 19 15 14 17 19 21 24 27 30 33 36 38 40 38 36 34 31 30 31 30 31 33 36 36 37 39 41 43 46 48 51 51 51 51 51 51 52 53 54 54 54 53 53 52 52 51 51 50 49 47 45
4 4 3 0 3 3 2 2 1 4 7 4 4 6 5 9 7 3 8 11 8 6 4 7 9 9 10 8 8 7 5 7 7 7 8 7 8 10 14 19 23 26 29 30 30 27 21 17 13 15 18 18 21 25 28 31 33 36 37 36 34 33 32 32 32 31 30 33 34 34 36 39 41 42 45 49 52 53 52 52 52 53 54 54 54 53 53 53 52 52 52 52 52 51 50 48 47
5 5 5 4 2 2 4 3 2 5 6 3 1 3 3 8 6 6 12 14 9 5 6 7 7 7 8 7 8 9 6 6 6 6 6 8 8 9 11 16 20 24 28 30 30 29 25 20 15 14 17 17 18 22 26 29 32 34 34 34 33 32 32 32 32 31 30 31 32 33 35 38 40 43 47 50 51 51 51 53 53 54 54 53 53 52 52 52 52 52 52 52 52 51 50 48 47
5 4 4 4 5 4 4 4 4 5 3 2 1 2 3 4 3 5 10 10 6 3 4 4 4 6 6 7 8 7 6 5 5 6 8 9 10 11 14 18 21 24 28 30 32 32 29 25 20 16 17 17 17 20 24 28 31 32 32 33 33 32 31 31 31 31 30 30 31 31 33 35 38 41 43 45 45 47 50 51 51 51 51 51 50 50 50 50 50 50 50 50 51 50 49 48 47
2 3 3 3 5 4 3 4 4 1 1 2 2 3 5 5 6 8 8 6 4 5 5 4 5 6 5 6 7 6 6 6 7 8 10 11 12 15 18 20 22 25 29 31 33 33 32 29 24 20 18 18 18 20 22 26 28 30 31 32 32 31 30 30 30 30 31 31 31 32 34 35 37 37 37 39 40 43 47 48 48 49 48 47 48 48 48 49 50 50 50 50 50 50 49 49 48
1 2 3 5 4 4 2 5 1 2 3 5 4 6 6 4 8 10 5 3 1 1 4 4 4 4 4 5 5 5 6 8 10 9 9 10 11 17 20 21 24 27 30 33 34 34 32 31 28 25 22 20 18 19 21 24 26 28 29 30 31 31 31 31 32 31 31 31 31 32 34 35 36 36 35 35 35 38 41 43 45 45 45 46 46 47 48 48 49 49 50 50 51 50 50 50 49
3 2 4 4 1 2 1 2 1 1 5 5 5 9 8 5 8 8 8 11 7 2 4 6 6 5 5 5 5 6 7 9 11 10 10 10 11 15 18 21 26 29 31 33 34 34 35 34 32 29 27 25 22 20 21 23 25 27 28 29 30 31 32 32 33 32 31 30 31 32 33 35 36 36 36 35 35 35 37 39 41 42 43 44 44 45 46 46 47 48 49 49 49 49 48 49 49
3 3 2 0 2 2 1 1 1 3 6 4 3 8 7 5 8 10 13 18 14 5 3 5 8 7 7 9 9 10 10 10 10 9 9 8 8 12 17 23 29 33 33 33 34 36 37 37 36 34 32 29 26 23 22 22 23 25 27 28 29 31 32 32 32 32 31 31 32 33 34 36 36 36 37 37 36 37 38 39 40 41 41 42 42 43 44 44 45 46 47 47 47 47 47 47 47
0 1 2 0 2 2 2 1 0 2 6 5 5 7 6 6 8 12 15 15 14 11 7 7 9 9 9 9 10 11 10 9 8 7 7 7 9 15 22 26 29 30 31 32 34 36 36 37 37 37 36 34 31 27 23 22 22 23 25 27 28 29 30 31 32 32 32 33 33 34 35 36 37 37 36 36 37 38 38 39 41 42 42 42 42 43 43 44 45 46 47 47 47 47 47 47 47
2 2 2 2 1 1 2 2 2 4 7 7 7 8 6 5 6 9 13 11 10 10 10 10 10 10 10 9 9 8 8 9 9 8 8 9 12 18 23 24 25 26 28 31 32 33 35 36 36 36 36 36 35 33 28 25 23 22 23 26 27 28 28 29 30 31 33 34 34 35 35 35 36 37 36 36 37 37 38 39 40 41 43 44 45 45 46 46 46 47 47 46 46 47 47 48 47
6 6 5 6 6 4 5 6 5 5 6 6 8 10 6 3 4 6 7 7 9 10 10 9 9 11 10 9 9 9 8 9 9 8 9 9 11 16 19 21 23 24 26 29 30 32 33 34 35 35 35 35 35 35 32 28 25 23 23 25 26 27 27 28 29 30 32 33 34 35 36 35 35 35 36 36 36 37 37 37 39 40 42 43 45 46 47 47 48 48 46 44 44 46 48 48 46
Wind_Direction
329 335 333 331 324 281 354 45 72 326 68 277 283 252 261 245 295 278 270 285 293 245 197 208 170 162 141 188 215 205 195 180 178 160 222 242 251 192 178 180 182 176 178 178 177 178 180 177 174 179 183 185 185 184 185 185 184 183 184 182 178 177 174 172 171 170 170 169 165 161 156 149 146 142 134 128 138 132 127 140 147 170 183 173 167 174 200 229 246 261 293 312 312 312 309 306 303
344 355 6 36 18 20 238 59 104 330 40 295 276 191 266 311 295 238 236 244 236 244 285 237 197 248 284 250 242 230 243 214 203 194 266 264 262 195 180 178 179 176 179 178 178 179 180 179 176 179 183 186 186 187 187 188 188 186 186 184 180 177 174 175 173 172 169 167 162 158 153 148 150 148 139 135 142 128 120 129 143 199 226 226 213 220 237 251 263 272 283 292 295 296 294 292 289
18 31 27 100 29 39 89 40 115 23 27 278 279 230 253 255 234 231 226 233 239 259 331 272 192 272 243 267 271 176 260 261 234 217 281 241 228 194 182 177 176 177 179 179 179 180 183 180 178 180 183 186 186 187 188 188 190 189 188 184 181 178 176 176 174 172 170 167 164 158 150 151 158 155 147 135 135 132 128 133 171 221 235 235 235 241 246 256 268 278 285 287 287 286 284 282 280
94 50 17 154 47 30 68 35 123 138 232 245 274 253 225 215 233 244 243 249 258 247 234 156 181 227 183 240 251 224 262 267 231 198 264 220 207 193 182 177 175 177 179 181 180 181 184 182 179 180 182 185 185 186 186 188 190 189 188 184 182 180 178 178 173 170 170 166 165 161 151 158 170 163 162 154 143 148 156 157 199 228 231 238 244 252 258 264 269 274 275 277 278 276 273 268 265
100 58 30 99 103 42 95 56 99 142 221 187 232 261 228 218 241 264 266 271 257 199 179 148 242 288 177 231 201 227 248 260 248 205 237 237 212 193 182 179 175 177 180 182 181 182 184 182 179 178 181 184 183 185 185 188 187 187 188 183 181 180 178 177 170 168 169 166 167 164 159 169 177 174 176 172 168 172 167 163 206 230 229 236 240 249 259 261 259 259 255 256 261 260 260 258 259
113 71 51 74 95 102 119 181 181 214 228 169 207 262 244 220 235 267 286 297 261 194 187 150 228 326 247 256 208 219 224 195 259 205 227 243 215 190 182 182 177 177 181 182 182 184 184 182 179 178 180 183 183 185 186 189 188 188 188 183 181 180 179 176 172 174 173 175 175 173 181 186 185 194 193 178 177 178 172 182 220 231 228 229 228 231 237 239 236 240 240 233 234 236 243 245 257
126 96 38 70 71 38 121 213 212 242 241 178 198 264 275 238 207 282 313 332 13 204 208 234 191 83 251 283 265 241 224 216 212 207 220 219 209 187 184 183 178 179 182 184 183 183 185 182 179 179 181 184 184 186 188 189 188 186 184 183 182 181 182 181 182 183 183 190 190 189 199 200 199 204 199 185 179 177 190 213 227 225 221 219 213 212 213 223 220 218 218 204 199 198 205 214 236
94 115 349 92 85 11 114 242 245 226 246 218 220 251 272 260 203 290 303 320 288 238 170 257 195 167 269 8 264 252 230 225 230 239 222 217 206 185 186 185 180 181 184 186 183 183 185 183 180 181 183 185 185 186 188 188 187 187 185 184 183 186 189 190 193 192 197 204 207 212 213 212 211 205 198 189 179 187 209 221 221 218 217 213 210 207 202 203 192 187 188 184 181 175 174 171 152
62 54 171 93 125 358 37 279 267 236 253 260 252 249 266 264 216 256 267 274 278 253 229 245 175 204 298 357 254 276 258 230 227 233 225 217 206 188 190 189 185 183 185 187 184 184 186 184 182 184 184 186 187 187 188 187 188 192 193 191 190 193 196 197 200 201 205 211 219 221 215 214 212 200 196 186 182 200 213 214 214 216 216 212 209 201 190 182 173 170 171 173 167 163 160 145 123
40 28 153 85 107 315 313 272 253 251 248 253 263 256 262 256 213 224 242 272 260 219 266 211 162 231 310 307 265 280 252 230 221 225 224 213 201 193 193 192 189 185 185 187 185 185 188 186 184 187 188 188 191 190 190 191 192 195 198 199 199 201 203 208 208 210 216 219 220 215 206 207 203 194 192 186 192 207 211 211 212 212 210 207 199 187 180 174 170 168 167 166 159 154 144 122 104
35 0 110 83 75 280 272 255 264 267 265 287 283 261 253 227 206 226 222 275 246 215 267 137 176 225 272 285 263 251 240 240 224 220 220 212 200 195 195 193 191 188 187 188 187 188 189 189 188 190 190 191 195 196 194 196 197 197 201 203 207 208 208 214 215 214 218 217 211 205 200 199 195 192 189 191 201 210 210 208 205 202 199 194 187 178 175 175 171 165 161 156 150 140 123 98 83
78 335 63 96 165 217 229 254 275 283 294 296 273 264 225 153 160 224 207 256 246 254 240 185 192 166 154 275 257 265 258 251 231 218 217 209 200 196 196 194 192 191 190 189 189 190 192 192 192 193 193 194 198 201 200 202 203 202 204 208 210 212 211 213 214 212 211 207 203 199 198 196 194 191 189 197 207 208 205 201 197 194 189 185 181 178 178 176 169 159 151 141 133 122 102 81 71
126 149 89 133 188 176 186 245 276 306 309 257 238 255 125 145 188 214 183 225 219 289 254 206 172 121 215 259 280 299 274 250 225 209 212 205 199 196 196 195 193 193 193 193 193 193 194 195 196 197 197 198 200 203 204 206 208 207 208 214 212 211 212 209 208 208 204 202 200 198 196 194 191 190 195 205 209 204 199 196 193 189 186 185 183 182 180 172 167 161 155 141 125 98 67 51 50
140 150 117 155 106 135 177 264 287 314 287 254 257 275 161 204 210 187 147 279 243 202 254 206 153 151 246 268 308 298 264 256 212 202 206 198 196 195 196 196 195 196 197 199 198 198 198 198 200 201 201 202 203 205 205 205 207 208 207 212 212 209 208 205 204 204 201 199 199 197 195 192 189 192 202 208 206 200 196 194 191 188 187 186 186 182 178 171 168 166 163 161 143 83 34 24 21
134 138 91 119 45 333 202 242 209 144 260 257 258 283 305 250 160 132 180 239 262 207 255 221 165 194 206 199 264 247 241 269 199 197 198 192 193 194 196 197 198 199 200 203 203 204 203 204 204 205 206 206 207 207 207 207 207 209 208 210 211 208 206 203 203 204 201 200 199 197 196 195 193 197 204 205 202 198 194 193 189 188 188 187 187 181 176 172 170 169 166 165 152 60 13 8 2
115 114 70 92 209 265 217 212 148 137 252 245 252 354 320 280 135 156 228 199 284 265 239 212 188 224 181 194 231 212 276 238 191 191 189 187 189 192 197 198 201 202 204 206 206 208 207 208 208 208 210 210 210 210 211 211 211 211 210 210 209 207 206 203 203 205 203 200 200 200 199 199 200 203 203 201 200 198 194 191 188 188 190 189 188 183 177 176 175 176 173 180 192 248 330 336 341
79 86 78 305 205 208 201 195 184 181 253 267 293 213 226 297 258 237 243 148 268 275 266 233 218 230 206 213 232 235 267 202 185 185 180 183 186 189 198 201 204 206 207 209 209 210 210 211 211 211 212 212 213 213 214 214 212 211 209 208 207 207 206 205 205 207 205 202 203 203 203 204 205 205 203 201 201 198 194 191 189 189 192 190 188 186 183 185 186 187 189 195 205 218 241 268 289
65 92 129 232 200 201 188 190 198 186 251 261 261 170 204 289 297 260 272 305 286 286 274 254 271 255 238 249 260 261 233 196 187 183 178 180 184 189 199 203 205 209 210 211 212 212 212 213 213 213 213 213 214 214 215 214 212 210 208 207 206 206 206 207 207 208 206 204 206 207 209 210 209 208 204 204 202 197 194 192 192 192 192 190 188 189 188 191 192 193 195 196 198 203 209 216 233
97 121 163 233 203 212 199 186 193 200 230 250 261 212 216 257 261 87 246 275 312 294 276 235 260 265 256 251 245 241 215 198 194 187 185 185 189 195 200 204 207 211 212 212 213 213 213 214 214 215 214 214 214 214 215 214 212 210 209 209 208 207 207 208 208 209 208 207 210 211 213 214 211 210 207 205 202 197 195 194 194 193 192 191 191 191 191 193 193 193 193 192 192 191 195 197 203
163 137 204 243 215 226 234 207 206 220 234 275 280 249 224 239 212 171 213 270 289 261 264 246 244 259 260 244 223 222 209 201 199 195 197 197 199 202 203 205 208 213 214 214 214 213 214 215 215 215 215 215 214 214 214 214 213 212 210 209 209 207 208 209 210 210 211 211 213 215 216 215 212 210 207 204 202 199 196 196 196 195 195 195 195 195 194 193 191 192 190 187 188 186 187 188 190
178 158 209 237 195 223 242 219 218 230 228 238 273 314 281 253 173 191 174 270 277 248 247 240 242 250 255 250 210 206 203 202 204 205 209 209 210 211 212 212 214 217 216 216 216 215 215 215 216 215 215 215 215 216 215 214 214 213 210 208 209 208 209 210 211 212 213 214 216 217 217 215 212 209 207 204 203 202 200 199 199 198 199 198 197 198 195 191 189 189 188 184 181 181 181 181 184
177 215 232 233 166 232 246 214 219 216 182 219 264 291 278 281 160 200 174 213 255 252 243 227 235 241 245 249 207 193 201 207 207 211 216 216 217 218 219 220 220 221 219 219 219 218 217 216 216 216 216 216 216 217 216 216 215 214 210 208 209 210 211 211 212 213 214 216 217 218 216 213 211 209 207 206 205 204 203 202 200 200 200 200 197 196 194 190 189 186 184 181 178 177 177 178 180
235 249 254 245 197 229 248 187 204 179 163 212 221 278 296 328 282 214 178 219 246 257 256 236 240 237 237 240 189 190 207 210 209 214 218 218 219 221 222 223 223 223 222 223 222 220 219 217 217 216 217 217 217 218 217 217 216 216 212 209 210 211 212 213 214 215 215 217 218 218 216 213 210 208 208 207 206 205 205 203 201 201 200 200 197 195 194 191 189 186 182 179 177 175 174 178 178
242 257 258 252 214 227 246 209 194 188 223 234 232 322 291 267 282 236 190 225 251 260 260 252 257 252 239 238 213 215 216 213 220 222 223 222 224 226 227 226 226 225 224 225 224 223 222 219 218 217 218 218 217 217 217 218 217 217 215 211 212 213 213 214 216 216 216 218 219 218 216 214 212 210 209 208 208 206 205 203 201 201 200 200 198 195 195 193 189 185 182 179 177 177 175 178 179
221 235 249 259 231 239 260 268 243 245 249 245 306 289 271 262 267 271 243 233 249 259 265 261 264 266 248 245 241 233 228 225 230 230 230 230 231 233 232 230 228 227 227 227 226 225 225 222 219 218 218 218 218 217 217 218 218 217 216 213 214 215 216 217 217 217 217 218 218 217 216 215 214 212 211 209 208 206 204 203 202 202 201 199 199 196 195 195 191 185 183 181 179 179 177 178 179
216 222 257 277 274 269 278 272 245 247 247 173 185 259 268 274 262 270 255 233 246 256 272 274 264 265 250 248 249 238 236 236 236 235 235 236 234 234 235 232 229 230 231 229 228 228 227 224 222 220 219 219 218 218 218 219 218 217 217 216 215 216 217 218 218 218 219 219 218 216 215 215 215 214 213 210 208 207 203 202 202 202 202 200 200 198 194 195 194 188 184 182 181 180 180 179 178
190 201 273 263 272 283 260 263 253 245 256 176 192 254 268 285 72 268 253 211 245 259 274 278 263 259 252 249 252 244 240 241 241 240 242 240 231 231 234 230 228 232 232 229 230 230 228 225 224 223 221 219 218 219 219 219 219 218 219 219 218 218 218 219 219 220 220 220 219 216 216 216 216 216 214 212 209 207 204 203 203 203 203 201 200 199 194 192 193 192 186 185 184 181 181 179 177
136 143 295 276 293 294 235 244 261 229 258 194 187 252 279 302 142 250 258 208 239 263 274 280 265 258 259 255 256 251 244 247 248 242 240 237 230 229 230 228 229 231 230 231 232 229 227 226 226 225 222 220 219 219 219 219 219 219 219 220 220 220 220 220 220 221 220 220 220 217 217 216 216 216 215 214 211 208 206 204 204 203 204 203 200 198 196 192 191 192 189 187 185 183 183 181 178
66 80 309 291 332 307 253 239 255 184 218 182 158 252 286 261 235 250 263 213 219 260 271 275 268 264 265 263 262 254 250 254 250 235 237 240 238 234 234 236 233 231 232 234 231 227 228 228 226 226 223 221 220 220 220 219 220 220 220 221 221 221 220 221 221 221 221 221 220 218 218 217 216 216 215 214 213 210 208 206 206 205 205 204 201 198 197 194 191 193 191 188 186 184 185 185 182
286 73 314 295 339 307 269 227 18 149 194 170 151 256 266 244 251 260 270 138 225 258 262 267 271 272 270 266 267 263 258 253 243 238 241 244 244 240 241 244 238 235 236 233 230 229 230 227 226 225 222 222 221 221 220 220 221 220 221 221 221 221 220 221 221 222 222 221 220 218 218 218 217 217 215 214 213 212 209 208 208 207 206 204 202 201 199 197 195 194 193 190 188 187 187 187 187
290 305 240 308 310 283 291 50 114 202 220 159 162 251 255 254 264 268 282 106 213 255 265 268 272 274 274 268 266 271 265 248 244 248 249 249 249 245 246 248 243 240 237 233 233 233 230 227 225 224 223 223 222 221 221 221 221 221 221 221 222 222 221 221 222 221 221 221 220 219 218 218 217 217 216 215 214 213 211 209 209 209 207 205 204 203 201 200 198 196 195 193 191 189 189 189 189
12 275 267 285 204 266 303 287 189 221 259 138 171 234 260 260 265 270 294 55 192 251 266 269 271 274 275 273 265 264 268 260 253 254 256 255 253 251 249 249 245 242 239 236 237 234 231 229 226 225 223 223 222 222 222 221 221 221 221 221 222 221 221 221 222 221 221 221 221 220 219 218 217 217 217 216 215 213 212 211 211 210 209 206 205 204 203 202 200 197 197 197 196 192 190 191 191
325 223 245 251 237 272 314 293 240 200 201 177 210 236 270 262 262 276 299 309 265 258 269 269 269 273 272 272 266 260 268 274 269 263 261 258 256 256 255 254 250 247 245 241 238 233 231 230 227 225 224 224 223 222 221 220 220 220 220 221 221 220 221 221 221 221 221 221 221 220 219 218 217 218 217 217 216 215 214 213 212 212 210 208 207 206 204 204 201 199 198 198 199 198 194 192 190
276 217 231 240 245 261 299 294 298 164 170 206 235 237 252 263 277 289 293 293 288 279 275 272 270 270 267 265 266 265 264 270 273 269 267 264 262 263 261 260 258 252 249 245 240 236 233 231 227 226 226 225 223 221 220 219 218 218 219 220 220 221 222 222 221 221 221 221 221 220 219 218 218 218 218 217 216 216 215 214 213 213 211 210 208 207 205 204 202 201 201 198 198 200 199 194 192
241 232 243 263 249 246 255 265 290 304 225 221 253 252 254 267 276 277 276 277 282 280 278 277 274 269 265 264 265 267 268 265 263 266 273 279 277 273 269 265 261 256 253 248 243 239 235 231 229 228 226 223 222 221 219 217 216 216 217 218 220 221 222 221 221 221 221 221 221 220 220 219 218 218 217 217 216 216 215 215 214 213 212 210 208 207 205 204 202 202 202 201 199 199 199 197 194
233 225 231 259 266 250 244 251 260 280 284 269 263 266 266 268 270 271 271 261 262 275 278 277 276 274 269 265 263 264 263 261 261 269 282 292 284 277 274 269 264 260 255 250 244 239 233 229 228 227 225 222 221 218 215 213 212 213 214 215 217 220 221 221 221 222 222 222 221 221 220 220 219 218 218 217 217 216 215 215 214 213 212 211 210 208 206 206 204 202 201 202 202 199 197 196 195
204 223 242 251 265 267 260 267 267 169 264 262 254 268 272 270 270 271 273 268 254 261 271 276 278 277 274 270 265 259 255 261 278 289 289 287 282 279 276 272 266 261 256 249 243 238 234 229 226 226 224 220 217 214 212 210 208 208 208 212 217 219 219 219 220 221 222 222 222 221 220 220 219 218 218 218 217 216 215 214 213 213 212 212 213 212 210 208 206 204 202 203 205 203 199 196 194
259 248 269 264 251 266 268 273 276 219 207 257 248 266 272 270 273 270 268 268 258 253 261 273 275 275 277 272 264 262 266 282 300 296 285 282 285 287 282 274 264 259 257 250 245 242 237 231 228 228 224 218 216 215 212 210 211 210 209 213 216 217 217 217 218 220 220 221 221 220 219 219 218 218 218 218 217 216 215 214 214 213 213 213 213 213 212 210 207 205 204 203 206 207 205 200 192
253 251 275 274 261 279 277 267 286 316 212 271 273 271 270 264 264 261 258 257 261 259 243 255 269 274 272 266 267 284 314 313 303 294 290 298 309 310 297 280 268 263 261 255 250 245 238 232 230 229 223 220 219 217 214 214 214 213 213 215 216 215 217 218 218 219 219 219 219 219 218 218 217 218 218 217 216 216 215 215 215 215 214 213 211 211 211 210 209 207 206 205 204 204 206 203 197
233 230 264 272 266 282 272 270 322 338 246 271 292 284 272 255 253 254 257 257 262 265 249 246 255 258 262 272 290 315 319 308 307 299 296 335 10 347 310 286 275 268 263 258 253 246 238 235 232 228 224 223 221 218 217 217 216 215 215 218 220 217 220 221 219 221 221 219 218 218 218 217 217 217 217 217 216 216 217 217 216 215 215 214 213 211 211 210 210 209 207 207 204 200 202 204 202
233 210 227 259 259 255 254 285 338 323 284 300 314 298 282 254 255 258 271 285 257 257 258 253 250 250 267 290 299 297 291 290 296 292 298 6 25 327 300 290 284 273 268 266 261 253 245 241 236 230 227 224 223 220 218 215 213 212 211 214 218 216 218 218 215 219 220 217 218 218 217 216 216 216 217 217 217 218 218 218 217 216 215 214 214 213 213 212 211 211 209 208 206 204 203 203 203
265 206 214 241 257 262 264 296 342 336 305 345 8 321 297 6 308 266 292 334 266 248 245 249 254 282 293 279 286 296 279 260 261 279 307 9 330 294 292 291 285 278 280 283 276 266 256 249 242 234 229 226 224 222 217 212 210 209 205 203 204 203 206 210 212 214 214 214 216 216 216 216 216 216 217 218 218 218 218 217 217 216 215 215 214 214 214 214 212 212 211 210 210 209 206 203 202
286 232 214 231 249 264 271 292 325 297 264 289 63 346 286 289 180 240 256 259 262 253 245 254 281 355 306 283 298 299 278 270 275 301 344 348 301 289 294 300 298 290 298 302 292 280 267 256 247 238 232 228 225 222 216 211 209 209 206 206 206 204 206 213 215 215 214 214 215 215 216 216 216 216 217 217 217 217 217 217 217 216 216 216 215 214 214 215 214 214 214 213 213 211 208 206 204
268 231 192 202 224 242 238 235 238 243 284 294 149 150 276 282 228 233 227 188 256 261 260 279 314 310 288 292 298 290 287 295 308 347 6 300 278 283 299 313 317 312 315 314 303 293 280 266 254 244 237 231 227 222 217 213 211 211 210 210 212 212 215 218 218 216 216 215 214 215 216 216 216 216 216 216 217 217 217 217 217 216 216 216 215 215 216 216 216 216 215 215 215 213 211 212 210
244 186 138 155 188 206 162 160 207 268 337 305 210 146 244 278 263 345 62 183 249 264 269 287 297 288 282 282 283 285 284 284 327 4 277 257 280 306 313 320 327 330 333 327 317 306 292 277 262 249 241 234 229 224 219 216 215 214 213 213 216 219 221 222 221 217 216 214 213 213 214 215 215 215 215 216 216 216 216 217 216 215 215 216 216 217 217 217 217 216 216 216 216 215 215 215 216
215 124 94 80 86 83 99 137 141 57 314 262 201 166 231 278 265 108 78 217 237 254 269 283 285 283 285 291 296 296 299 343 53 1 277 288 317 319 315 324 337 346 349 344 336 326 309 290 270 254 245 238 232 227 221 218 216 215 216 217 219 222 222 221 222 219 215 213 212 211 212 213 213 213 214 215 216 216 216 216 216 216 216 216 216 217 217 216 217 218 218 218 218 218 217 215 218
134 110 65 39 44 46 58 67 90 76 279 244 187 182 192 286 275 145 176 225 207 216 284 296 289 291 294 297 294 293 308 345 67 247 281 325 344 338 332 340 351 358 0 359 354 344 330 310 286 267 255 244 236 230 224 220 217 216 218 220 221 222 221 218 217 216 213 211 210 211 211 212 213 214 213 214 216 216 216 216 216 217 216 216 217 217 217 217 218 219 219 220 219 219 219 217 218
111 100 71 26 342 13 30 355 57 165 260 252 189 180 174 242 262 185 248 252 208 190 304 294 285 294 298 294 284 278 302 341 17 341 321 347 358 346 341 347 355 360 3 3 2 356 346 328 303 283 271 255 242 236 229 225 221 219 221 222 223 224 222 219 218 217 214 211 211 212 211 211 213 214 213 214 215 216 216 215 215 216 216 216 217 218 218 218 219 219 219 220 220 220 220 219 218
113 112 120 225 308 340 340 307 102 208 255 262 187 170 191 244 251 243 266 270 252 215 228 258 264 274 283 298 307 307 338 7 7 347 336 356 360 339 338 347 350 356 360 1 3 1 353 340 319 294 285 270 251 241 235 230 226 224 224 224 226 226 224 223 223 222 220 217 216 213 211 211 211 212 212 214 215 215 215 215 215 216 217 217 218 218 218 218 218 218 219 219 220 220 220 220 220
158 152 156 168 190 250 255 249 260 262 270 294 176 161 251 277 271 235 244 262 267 223 206 233 249 264 284 309 312 314 346 2 345 334 345 359 350 333 342 351 351 354 358 0 3 1 355 347 332 308 297 285 263 248 240 235 231 229 228 228 228 227 226 226 226 226 225 224 221 219 217 214 213 214 215 216 217 216 215 216 217 218 218 218 218 217 217 218 218 218 219 219 220 220 221 221 222
179 164 146 163 181 200 227 228 247 269 291 333 281 181 210 249 266 239 232 248 279 275 246 274 284 271 289 302 297 315 344 343 339 352 2 0 346 342 352 359 359 359 1 3 3 1 357 351 341 325 311 298 279 261 248 241 237 234 232 231 230 229 229 229 229 229 229 228 227 224 223 222 221 221 220 219 218 217 217 217 217 218 218 217 217 217 217 217 217 217 218 219 220 221 221 222 222
221 129 118 200 200 183 231 233 209 210 311 278 213 220 225 227 267 273 255 253 274 275 275 293 289 281 298 300 304 338 345 342 3 18 16 5 356 360 5 7 7 8 9 9 6 4 1 356 350 340 326 311 292 275 261 251 244 239 236 234 233 232 231 231 232 232 232 232 231 229 228 228 227 227 226 224 222 220 219 218 217 218 218 218 218 217 217 217 217 217 217 218 220 220 221 221 222
137 110 188 226 184 145 240 264 200 111 252 239 211 249 273 293 282 281 300 333 18 340 303 290 278 294 318 308 320 345 345 5 25 36 32 14 7 11 12 13 14 16 16 13 11 10 9 5 358 349 340 328 310 292 276 263 253 245 241 238 236 235 233 232 233 234 234 235 235 234 232 231 230 230 229 228 226 224 222 219 218 219 219 219 219 218 218 218 218 218 218 219 220 220 221 222 222
121 166 229 234 169 134 188 269 333 278 250 243 234 262 286 308 284 297 327 310 300 8 350 327 328 337 340 338 350 356 8 31 37 40 35 21 16 15 13 16 19 20 19 16 14 15 17 16 10 1 351 341 326 309 291 276 263 254 249 244 241 239 237 235 235 235 236 237 237 237 236 234 233 232 231 230 229 228 226 224 221 220 220 219 219 219 219 219 219 219 219 219 220 220 220 221 222
149 214 254 143 203 255 277 161 252 264 263 262 243 265 281 272 274 295 299 291 295 320 356 348 350 357 359 1 9 13 22 36 38 37 31 21 18 17 19 21 21 20 19 17 16 17 18 19 18 13 6 356 343 327 307 290 275 265 259 253 248 244 241 240 238 237 237 237 238 238 237 236 235 234 233 231 230 229 228 226 223 222 221 220 220 220 220 219 219 219 219 219 220 220 220 220 221
280 240 309 39 180 235 267 209 171 270 274 274 257 260 259 243 261 278 280 286 306 326 354 20 19 25 24 16 16 16 18 26 31 33 27 21 21 23 26 25 20 18 17 16 17 17 16 16 16 16 13 9 1 348 330 309 293 280 271 263 257 252 248 245 242 240 239 238 239 240 240 238 236 235 234 233 232 231 228 226 224 222 221 221 221 221 221 220 220 220 220 219 219 219 219 220 220
244 226 263 269 225 263 282 254 218 251 265 267 264 259 246 238 254 264 274 296 334 359 32 40 24 28 32 26 23 17 16 20 22 24 21 19 21 24 27 26 22 20 18 17 18 17 16 15 14 14 13 11 7 1 351 334 316 299 283 273 267 261 255 251 247 244 243 242 241 242 242 242 239 236 234 233 233 231 229 227 225 223 222 222 222 221 221 220 220 221 220 220 219 219 219 219 219
236 231 225 233 240 254 274 260 221 218 241 244 258 263 249 234 258 269 290 336 17 36 57 52 23 20 21 16 18 16 18 21 19 21 22 22 25 25 25 25 23 21 18 17 16 15 15 13 12 12 12 10 7 4 0 351 338 321 303 290 281 272 265 259 253 249 248 247 246 245 244 243 241 238 236 234 233 231 230 228 226 224 223 222 222 222 221 219 219 219 219 219 219 218 218 217 216